Wind_Speed
22 23 24 24 22 19 19 21 24 25 27 28 29 30 30 31 32 33 35 34 35 34 33 32 32 31 31 31 30 28 29 31 32 34 34 34 35 37 37 37 38 37 37
27 27 27 27 26 24 23 24 26 28 30 32 32 32 33 33 34 35 36 37 36 35 34 33 32 31 30 31 30 29 29 29 29 30 31 31 33 34 34 36 37 37 38
31 30 30 29 29 29 28 28 29 31 33 34 34 35 36 36 36 37 38 39 38 37 35 34 33 32 31 30 30 30 30 29 28 29 29 30 31 32 34 34 35 37 39
31 32 32 32 34 34 34 32 33 34 35 35 36 37 38 38 39 40 40 40 39 37 37 36 34 33 31 31 31 31 31 31 31 31 31 32 34 35 35 37 40 42 44
33 34 36 36 36 36 37 36 36 36 36 37 37 38 39 40 41 42 42 41 39 39 38 37 36 35 34 33 33 33 33 34 35 35 35 36 38 40 42 44 45 48 51
34 35 36 37 38 39 39 39 38 37 37 38 39 40 41 42 43 43 43 42 41 40 40 38 38 37 37 36 36 36 36 37 38 39 40 41 43 45 47 49 50 53 56
39 38 38 38 39 39 39 39 37 37 37 38 40 41 41 42 43 43 43 42 42 41 41 40 39 40 40 39 39 39 39 40 42 43 44 45 48 50 52 53 55 58 60
43 42 40 38 37 37 37 36 36 37 37 38 39 40 41 42 43 43 43 43 43 42 42 42 42 42 41 41 42 42 43 43 44 46 47 49 51 54 56 58 60 61 63
46 43 40 37 35 34 34 35 35 36 37 38 39 41 42 42 43 44 44 44 44 44 44 45 45 45 45 45 45 45 45 46 47 49 50 52 55 57 59 61 63 64 65
41 39 36 34 33 33 34 34 35 36 37 38 40 41 42 43 44 45 46 46 47 47 47 48 49 49 48 49 48 48 48 49 50 52 53 55 57 59 61 63 64 65 65
33 33 33 33 33 33 34 35 36 37 38 39 41 42 43 44 46 46 48 49 50 51 51 52 53 52 52 52 52 52 51 52 53 54 56 57 58 59 61 62 63 64 64
30 31 32 32 33 34 34 35 37 38 40 41 42 44 45 46 48 49 50 51 52 53 54 55 55 55 55 55 54 54 54 55 55 56 56 57 57 58 59 60 61 62 62
30 32 33 34 35 35 36 38 39 41 42 44 45 47 48 49 50 51 51 53 54 55 56 56 57 57 56 56 56 56 56 56 56 56 56 56 57 57 58 58 58 59 59
31 33 35 36 38 39 40 42 43 45 47 48 49 50 51 52 52 52 53 55 56 56 57 57 57 57 57 57 57 57 57 56 56 55 55 55 55 55 55 55 55 55 55
32 35 37 39 41 43 44 46 47 49 50 51 52 52 53 53 53 54 54 55 56 56 57 57 57 57 57 57 58 57 56 56 55 55 54 54 53 52 52 52 52 52 51
35 37 39 41 44 45 45 47 48 49 50 50 51 51 51 51 52 53 54 55 55 55 55 55 55 56 56 56 56 56 55 55 54 53 52 51 50 49 48 48 48 47 46
36 37 39 41 41 43 44 45 46 47 47 47 47 47 48 50 50 50 51 52 53 53 54 54 54 54 55 55 55 55 54 53 51 50 48 47 46 45 44 43 42 41 39
35 36 36 37 38 39 39 39 40 41 41 42 44 45 45 46 48 49 50 51 52 52 52 52 52 52 53 53 52 51 50 48 47 45 44 42 41 39 38 37 36 34 30
37 38 36 36 36 36 36 38 39 40 41 42 44 45 46 47 47 48 48 49 49 50 50 50 50 49 49 49 48 46 45 43 42 40 38 36 35 34 32 30 28 25 24
36 35 34 34 35 35 37 38 39 40 42 43 43 44 45 45 46 46 47 47 47 47 47 47 47 46 45 44 43 42 40 39 37 35 32 30 28 27 25 22 20 19 20
29 30 31 33 35 36 38 39 40 41 41 41 42 43 43 43 43 43 43 43 43 43 43 43 43 42 41 40 39 37 35 33 31 28 25 23 21 19 17 15 14 15 17
28 29 31 32 33 34 35 36 37 38 39 39 40 40 40 39 39 39 39 39 39 39 39 38 38 37 35 34 32 31 29 26 23 20 18 15 13 11 10 10 11 13 14
28 29 30 30 31 32 33 34 35 36 36 36 36 36 36 36 36 36 36 36 35 35 34 33 32 30 28 26 25 22 20 17 14 12 9 8 6 5 5 6 8 10 13
26 26 27 28 29 30 31 32 32 32 32 32 33 33 32 33 33 32 32 32 31 30 28 27 25 23 21 19 17 14 11 9 7 6 4 2 1 2 3 5 7 10 12
23 24 26 27 28 28 28 29 30 30 30 30 30 30 30 29 29 28 27 26 25 23 22 21 19 18 16 13 11 8 6 4 3 1 1 1 2 3 4 6 8 11 13
22 23 24 24 25 25 26 27 28 28 28 28 27 27 26 25 24 22 21 20 19 18 18 16 15 12 10 7 4 3 1 2 3 4 4 4 4 5 6 8 10 11 13
Wind_Direction
245 244 245 257 265 273 279 286 290 293 294 294 295 297 300 302 304 307 309 313 316 317 318 323 323 322 320 319 319 314 308 303 297 290 286 283 282 283 279 275 275 276 278
235 243 248 256 264 270 274 281 285 288 288 288 289 291 293 295 297 300 304 306 308 310 313 315 317 319 318 318 317 315 313 309 305 298 292 289 288 287 284 282 281 282 282
241 249 254 259 268 272 275 277 280 283 283 284 285 287 287 289 291 294 297 299 301 304 306 309 311 312 313 315 316 314 312 311 308 303 297 294 293 292 289 286 285 286 285
247 252 257 261 268 270 272 275 279 280 280 280 282 283 284 285 287 290 292 294 296 299 301 305 306 306 307 309 310 310 308 308 307 305 301 297 294 292 290 288 286 285 283
253 254 257 261 265 269 273 275 278 278 277 277 277 279 281 282 284 286 288 290 293 295 297 299 300 302 302 304 304 305 305 304 303 302 299 296 293 292 292 291 289 288 287
258 260 262 263 266 269 273 276 277 276 275 275 276 277 278 279 281 283 285 288 290 292 293 294 296 297 298 300 301 301 301 300 300 299 297 295 293 293 292 291 290 289 288
263 265 266 267 267 269 271 273 274 274 273 273 275 276 277 279 281 283 284 286 289 290 290 291 293 294 295 296 298 298 299 298 297 296 295 293 292 291 290 289 288 288 287
265 267 268 268 268 268 268 269 270 271 272 272 274 275 277 279 281 283 284 287 288 288 289 289 290 292 293 295 296 296 296 295 295 294 294 292 290 290 288 287 287 287 288
263 266 267 267 266 266 266 266 267 268 269 271 272 274 277 279 281 283 285 286 287 287 287 288 290 292 293 294 295 294 294 293 292 292 291 289 288 288 288 288 288 288 288
260 262 263 263 264 264 264 264 265 266 268 269 271 274 276 278 280 282 284 284 285 285 286 288 290 291 292 293 293 293 293 291 291 290 289 288 288 288 288 289 290 290 290
257 258 259 260 261 262 262 264 264 266 267 269 272 273 275 277 279 281 283 284 285 286 287 288 289 291 291 292 292 292 292 291 291 290 289 289 289 290 290 291 291 292 292
255 256 257 258 260 261 262 264 265 266 268 270 272 273 275 277 279 281 282 283 285 286 287 288 288 289 290 291 292 292 292 292 291 291 291 291 291 291 292 292 293 293 293
252 254 256 258 261 262 264 265 266 268 269 271 272 273 275 277 279 280 281 283 284 286 287 287 288 289 291 292 292 292 293 293 292 292 292 293 293 293 293 294 294 294 295
250 253 257 260 262 263 265 266 268 270 271 272 273 274 275 277 278 279 281 282 283 284 286 287 288 289 291 291 292 292 293 293 293 293 294 294 294 295 295 295 295 296 297
255 258 260 262 264 265 267 268 270 272 273 273 274 275 277 277 277 278 280 282 283 284 285 287 289 290 291 291 292 292 292 292 293 293 294 294 294 295 296 296 297 298 299
266 264 263 263 264 266 268 269 271 271 272 272 274 274 274 276 279 281 283 284 286 287 289 290 290 291 291 291 291 291 292 292 293 293 293 294 294 295 296 297 298 299 300
267 265 267 267 266 265 266 267 270 272 273 275 277 278 281 283 284 286 288 289 290 291 291 291 291 291 291 291 291 291 292 292 293 293 294 294 295 297 297 298 299 301 302
273 275 274 273 272 272 273 275 278 279 281 282 285 287 289 290 291 292 292 292 292 292 292 292 291 291 291 291 292 292 292 293 293 293 294 295 296 297 298 299 300 302 305
279 281 280 279 280 280 283 285 285 287 289 291 293 294 294 294 294 294 293 293 293 292 293 293 293 293 292 292 292 293 293 293 293 294 294 295 295 296 297 298 300 303 307
280 281 282 282 284 286 288 290 292 294 295 295 295 296 296 296 295 295 295 295 295 295 294 294 295 294 294 293 293 293 293 293 294 294 294 293 293 294 295 297 300 305 311
284 285 286 288 290 292 294 296 297 297 297 297 297 298 298 298 298 297 297 297 296 296 297 297 296 295 295 295 294 294 294 293 293 292 291 291 290 290 292 296 303 310 317
293 293 294 296 296 297 297 297 298 299 300 300 300 301 301 301 300 300 300 299 300 300 300 300 299 298 297 296 295 294 293 293 291 290 289 288 286 287 292 301 313 322 328
298 298 300 301 301 301 302 302 303 304 304 304 304 304 304 304 303 303 302 302 302 302 302 303 302 300 299 298 297 296 294 292 291 289 287 287 284 288 302 319 331 338 343
303 304 305 306 307 308 309 309 310 310 309 309 308 308 308 307 307 307 305 305 306 307 307 307 306 304 302 300 299 298 295 293 292 292 297 291 293 335 352 354 356 357 1
307 308 309 310 312 313 313 314 313 313 312 312 312 311 311 311 311 311 311 312 314 315 314 313 312 310 307 304 300 296 295 293 291 304 104 106 72 45 31 25 20 17 16
314 314 315 315 316 317 317 317 318 317 317 316 315 315 315 316 317 318 319 321 323 324 325 325 325 325 323 321 319 320 1 109 112 111 107 97 82 67 59 49 39 33 31
Height
5866 5866 5867 5867 5868 5870 5873 5874 5874 5873 5873 5872 5872 5871 5870 5869 5868 5866 5864 5862 5860 5859 5856 5854 5851 5848 5845 5842 5839 5836 5833 5831 5830 5829 5829 5828 5828 5827 5826 5826 5825 5824 5823
5861 5861 5863 5863 5862 5865 5868 5869 5869 5868 5867 5866 5866 5865 5864 5863 5862 5860 5859 5857 5855 5854 5851 5849 5847 5844 5840 5837 5834 5830 5828 5825 5823 5822 5821 5821 5821 5819 5818 5817 5816 5815 5813
5857 5858 5858 5859 5859 5860 5862 5864 5864 5863 5861 5860 5860 5859 5858 5857 5856 5855 5853 5851 5850 5847 5845 5843 5841 5838 5835 5832 5828 5825 5822 5820 5817 5815 5814 5813 5812 5811 5810 5808 5806 5805 5803
5854 5854 5853 5854 5854 5855 5855 5857 5857 5856 5855 5854 5853 5852 5851 5850 5849 5848 5846 5844 5842 5841 5839 5836 5834 5832 5829 5826 5823 5820 5817 5814 5811 5809 5806 5805 5803 5802 5801 5799 5797 5794 5792
5848 5849 5850 5850 5850 5849 5848 5849 5849 5848 5847 5846 5845 5844 5843 5842 5841 5840 5838 5837 5835 5833 5831 5829 5827 5825 5822 5819 5816 5813 5810 5807 5804 5801 5799 5797 5794 5792 5790 5788 5785 5781 5778
5841 5842 5843 5844 5844 5843 5842 5841 5841 5840 5839 5838 5837 5836 5835 5834 5833 5831 5830 5828 5827 5825 5823 5821 5819 5816 5814 5811 5808 5805 5802 5799 5795 5792 5789 5787 5784 5781 5778 5775 5772 5768 5764
5834 5835 5835 5835 5835 5835 5834 5833 5832 5832 5831 5830 5829 5827 5826 5825 5824 5822 5821 5820 5818 5817 5815 5813 5810 5808 5805 5802 5799 5795 5792 5789 5786 5782 5779 5775 5772 5768 5765 5761 5758 5754 5750
5825 5826 5826 5826 5826 5826 5826 5825 5824 5823 5823 5822 5821 5819 5818 5817 5815 5813 5812 5811 5809 5807 5805 5803 5800 5798 5795 5792 5788 5785 5782 5778 5775 5771 5767 5763 5759 5755 5751 5747 5743 5739 5735
5817 5817 5817 5817 5817 5817 5817 5817 5816 5816 5815 5814 5813 5812 5810 5808 5807 5804 5803 5801 5799 5797 5795 5792 5790 5787 5784 5780 5777 5774 5770 5766 5762 5759 5755 5751 5746 5741 5737 5732 5727 5723 5719
5807 5807 5808 5808 5808 5809 5809 5808 5808 5808 5807 5806 5805 5804 5802 5800 5798 5796 5793 5791 5789 5787 5784 5781 5778 5775 5772 5768 5765 5761 5758 5754 5750 5745 5741 5737 5732 5727 5721 5716 5710 5705 5701
5798 5798 5799 5799 5800 5800 5800 5800 5800 5799 5798 5797 5796 5794 5792 5790 5788 5786 5783 5781 5778 5775 5772 5769 5765 5762 5759 5755 5751 5748 5744 5740 5736 5731 5727 5722 5717 5712 5706 5700 5695 5689 5683
5789 5790 5791 5791 5791 5791 5791 5791 5791 5790 5789 5788 5786 5784 5782 5780 5778 5775 5772 5769 5766 5763 5759 5756 5752 5749 5745 5742 5738 5734 5730 5725 5721 5716 5712 5707 5702 5697 5691 5686 5680 5674 5667
5781 5782 5782 5783 5783 5782 5782 5781 5781 5780 5778 5777 5775 5773 5771 5768 5765 5762 5759 5756 5753 5750 5746 5742 5738 5735 5731 5727 5723 5719 5715 5711 5706 5702 5697 5693 5688 5683 5677 5671 5665 5659 5653
5773 5774 5774 5774 5773 5773 5772 5771 5770 5768 5767 5765 5763 5760 5758 5755 5752 5749 5746 5743 5739 5736 5732 5728 5724 5721 5717 5712 5708 5705 5700 5696 5692 5687 5683 5678 5674 5669 5663 5657 5651 5645 5639
5764 5764 5764 5764 5763 5762 5761 5759 5758 5756 5754 5752 5749 5747 5744 5742 5739 5736 5732 5729 5725 5722 5718 5714 5710 5706 5702 5698 5694 5689 5686 5682 5677 5673 5668 5664 5660 5655 5649 5644 5638 5632 5626
5754 5754 5754 5753 5752 5750 5749 5747 5745 5743 5741 5738 5736 5733 5730 5728 5725 5722 5718 5715 5711 5707 5704 5700 5696 5691 5687 5683 5679 5675 5671 5667 5663 5659 5655 5650 5646 5642 5637 5631 5626 5620 5614
5745 5744 5743 5742 5740 5738 5736 5734 5733 5731 5728 5725 5722 5720 5717 5715 5712 5708 5705 5701 5697 5693 5689 5685 5681 5677 5672 5668 5664 5660 5656 5653 5649 5645 5641 5637 5633 5630 5625 5620 5615 5609 5604
5737 5735 5734 5732 5730 5727 5725 5723 5721 5719 5716 5713 5711 5708 5705 5702 5699 5695 5691 5687 5683 5679 5675 5671 5667 5662 5657 5653 5650 5646 5642 5639 5635 5632 5629 5625 5621 5618 5614 5610 5606 5601 5597
5728 5727 5725 5723 5721 5718 5716 5713 5711 5708 5706 5702 5699 5696 5693 5690 5686 5682 5678 5674 5669 5665 5661 5656 5652 5648 5644 5639 5635 5632 5629 5626 5623 5620 5617 5614 5611 5608 5605 5602 5599 5595 5592
5720 5718 5716 5715 5712 5709 5707 5704 5701 5698 5695 5692 5688 5685 5681 5678 5673 5669 5665 5660 5656 5651 5647 5642 5638 5634 5630 5626 5622 5619 5617 5614 5611 5609 5606 5604 5602 5600 5598 5596 5594 5591 5588
5712 5710 5708 5706 5703 5701 5698 5695 5692 5689 5685 5681 5677 5673 5669 5665 5661 5656 5652 5647 5643 5638 5634 5630 5625 5621 5618 5614 5611 5608 5605 5603 5601 5599 5598 5597 5595 5594 5593 5592 5590 5588 5585
5705 5703 5700 5698 5695 5692 5689 5686 5683 5679 5675 5671 5666 5662 5658 5654 5649 5645 5640 5635 5631 5626 5622 5618 5613 5610 5606 5603 5600 5598 5596 5594 5593 5592 5591 5591 5591 5590 5590 5589 5588 5585 5582
5699 5696 5694 5691 5688 5684 5681 5678 5674 5669 5665 5661 5656 5652 5648 5643 5639 5635 5630 5625 5621 5617 5612 5608 5604 5601 5598 5595 5592 5590 5588 5587 5587 5587 5587 5587 5588 5588 5588 5587 5586 5583 5581
5693 5690 5687 5684 5681 5677 5673 5669 5665 5661 5656 5652 5648 5644 5639 5635 5630 5625 5621 5617 5612 5608 5604 5600 5597 5594 5591 5589 5587 5585 5585 5584 5584 5585 5585 5586 5586 5587 5586 5586 5584 5582 5579
5687 5684 5681 5678 5674 5671 5667 5663 5659 5654 5650 5645 5641 5636 5632 5627 5623 5618 5614 5609 5605 5601 5598 5594 5591 5588 5586 5585 5583 5582 5582 5583 5583 5584 5585 5585 5586 5586 5586 5585 5584 5582 5579
5682 5679 5676 5673 5669 5666 5662 5658 5653 5648 5644 5639 5634 5630 5626 5621 5617 5613 5609 5605 5601 5597 5594 5591 5588 5585 5583 5582 5581 5581 5582 5582 5583 5584 5585 5586 5587 5587 5586 5586 5584 5582 5580